This is the latest recevied weather packets stored in our database for station/object CALDNA-WX. If no packets are shown the sender has not sent any weather packets the latest 10 day(s).
| Time | Temp. | Humidity | Pressure | Rain* | Wind** | Luminosity | Snow |
|---|---|---|---|---|---|---|---|
| 1778110244 | 10° C | 37% | 985.9 hPa | 0 mm | - | - | - |
| 1778109322 | 10° C | 37% | 985.9 hPa | 0 mm | - | - | - |
| 1778108448 | 10.56° C | 37% | 985.9 hPa | 0 mm | - | - | - |
| 1778107522 | 10.56° C | 35% | 986.2 hPa | 0 mm | - | - | - |
| 1778106635 | 10.56° C | 35% | 986.5 hPa | 0 mm | - | - | - |
| 1778105722 | 11.11° C | 35% | 986.5 hPa | 0 mm | - | - | - |
| 1778104852 | 11.11° C | 35% | 986.5 hPa | 0 mm | - | - | - |
| 1778103921 | 11.11° C | 34% | 986.6 hPa | 0 mm | - | - | - |
| 1778103041 | 11.67° C | 32% | 986.7 hPa | 0 mm | - | - | - |
| 1778102121 | 11.67° C | 32% | 986.7 hPa | 0 mm | - | - | - |
| 1778101250 | 11.67° C | 32% | 986.7 hPa | 0 mm | - | - | - |
| 1778100323 | 11.67° C | 34% | 986.3 hPa | 0 mm | - | - | - |
| 1778099442 | 11.67° C | 34% | 985.9 hPa | 0 mm | - | - | - |
| 1778098527 | 11.67° C | 34% | 985.9 hPa | 0 mm | - | - | - |
| 1778097651 | 11.67° C | 34% | 985.4 hPa | 0 mm | - | - | - |
| 1778096727 | 11.67° C | 35% | 985.9 hPa | 0 mm | - | - | - |
| 1778095843 | 11.67° C | 35% | 985.9 hPa | 0 mm | - | - | - |
| 1778094927 | 11.67° C | 35% | 985.9 hPa | 0 mm | - | - | - |
| 1778094046 | 11.67° C | 35% | 985.9 hPa | 0 mm | - | - | - |
| 1778093126 | 11.67° C | 36% | 985.6 hPa | 0 mm | - | - | - |
| 1778092238 | 11.67° C | 34% | 985.7 hPa | 0 mm | - | - | - |
| 1778091326 | 11.67° C | 34% | 985.7 hPa | 0 mm | - | - | - |
| 1778090452 | 11.67° C | 34% | 985.7 hPa | 0 mm | - | - | - |
| 1778089524 | 11.67° C | 38% | 985.8 hPa | 0 mm | - | - | - |
| 1778088644 | 11.67° C | 35% | 986.4 hPa | 0 mm | - | - | - |
* Rain latest hour (hover to see other rain measurements)
** Current wind speed in m/s (hover to see current wind gust speed)